Regional Weather Roundup
Issued by NWS

Home | Current Version | Previous Version | Graphics & Text | Print | Product List | Glossary On
Versions: 1 2 3 4 5 6 7 8 9 10 11 12 13 14 15 16 17 18 19 20 21 22 23 24 25 26 27 28 29 30 31 32 33 34 35 36 37 38 39 40 41 42 43 44 45 46 47 48 49 50
000
ASUS43 KIND 042059
RWRIN

WEATHER ROUNDUP FOR INDIANA
NATIONAL WEATHER SERVICE INDIANAPOLIS IN
500 PM EDT TUE AUG 04 2015

NOTE: "FAIR" INDICATES FEW OR NO CLOUDS BELOW 12,000 FEET WITH NO
SIGNIFICANT WEATHER AND/OR OBSTRUCTIONS TO VISIBILITY.

* - STATION DOES NOT REPORT WEATHER SUCH AS PRECIPITATION OR FOG.

+ - STATION NOT QUALITY CONTROLLED BY THE NATIONAL WEATHER SERVICE.
    USE DATA WITH CAUTION...ESPECIALLY DEWPOINT AND RELATIVE
    HUMIDITY OBSERVATIONS.

INZ001>003-010>013-019-020-042200-
NORTHWEST INDIANA

CITY           SKY/WX    TMP DP  RH WIND       PRES   REMARKS
GARY /AIRPORT/ PTSUNNY   81  57  44 W7        29.97F
KNOX *+        MOSUNNY   77  55  47 SW10      29.97S
MONTICELLO +   PTSUNNY   78  59  51 W7        29.99S
RENSSELAER +   PTSUNNY   79  59  50 W10       29.99S

$$

LMZ046-743>745-042200-
SOUTHERN LAKE MICHIGAN

STATION/POSITION TIME  TEMP    WIND        PRES    WAVE
                       AIR SEA DIR/SP/G            HT
                 (UTC) (F)     (DEG/KT/KT) (MB)    (FT)
BURNS HARBOR     2000   77      10/  6/  7 1015.2S
MICHIGAN CITY    2000   80     320/  3/  4   N/A
5NW MICH CITY    2010   76 77  360/  4/  6   N/A     1

$$

INZ004-005-014>016-021>024-042200-
NORTH CENTRAL INDIANA

CITY           SKY/WX    TMP DP  RH WIND       PRES   REMARKS
ELKHART        SUNNY     79  48  34 NW10G17   29.98S
GOSHEN         MOSUNNY   78  54  43 NW12      29.97S
SOUTH BEND     MOSUNNY   80  52  37 NW13      29.98F
WARSAW +       PTSUNNY   77  57  50 W9        29.98S

$$

INZ006>009-017-018-025>027-042200-
NORTHEAST INDIANA

CITY           SKY/WX    TMP DP  RH WIND       PRES   REMARKS
ANGOLA *+      MOSUNNY   81  59  47 NW8       29.96S
FORT WAYNE     PTSUNNY   80  58  46 W14       29.98S

$$

INZ028-029-035-036-043>045-051>053-042200-
WEST CENTRAL INDIANA

CITY           SKY/WX    TMP DP  RH WIND       PRES   REMARKS
CRAWFORDSVL +  MOSUNNY   77  52  41 W10         N/A
GREENCASTLE +  CLOUDY    75  55  50 W5        30.01F
LAFAYETTE      PTSUNNY   79  59  50 W9        29.99S
TERRE HAUTE    CLOUDY    80  59  48 W8        30.01S

$$

INZ030>032-037>040-046>048-054>057-064-065-042200-
CENTRAL INDIANA

CITY           SKY/WX    TMP DP  RH WIND       PRES   REMARKS
FRANKFORT +    PTSUNNY   81  61  51 W8        30.02F
INDIANAPOLIS   PTSUNNY   80  56  43 NW13      29.99F
-EAGLE CREEK   PTSUNNY   81  57  43 NW12      29.99F
KOKOMO *+      PTSUNNY   79  57  47 W12       30.00R
MT COMFORT *+  PTSUNNY   82  45  26 W10       30.00S
SHELBYVILLE    PTSUNNY   82  57  42 W9        29.98F

$$

INZ033-034-041-042-049-050-058-059-042200-
EAST CENTRAL INDIANA

CITY           SKY/WX    TMP DP  RH WIND       PRES   REMARKS
MUNCIE         MOSUNNY   77  58  51 NW12      29.99S

$$

INZ060-061-067>069-081>083-085>088-042200-
SOUTHWEST INDIANA

CITY           SKY/WX    TMP DP  RH WIND       PRES   REMARKS
EVANSVILLE     MOSUNNY   92  73  53 NW8       29.95F HX 100
HUNTINGBURG *+ SUNNY     88  72  58 CALM      29.96F

$$

INZ062-063-066-070>080-084-089>092-042200-
SOUTH CENTRAL AND SOUTHEAST INDIANA

CITY           SKY/WX    TMP DP  RH WIND       PRES   REMARKS
BLOOMINGTON    CLOUDY    81  65  58 NW3       29.99F
MADISON *+     CLOUDY    81  63  54 W7        30.01S
SEYMOUR +      PTSUNNY   84  64  51 NW6       29.98F

$$



USA.gov is the U.S. government's official web portal to all federal, state and local government web resources and services.